Flag for United Kingdom Weather past 2 weeks in Liverpool, England, United Kingdom

41 °F

Passing clouds.

Feels Like: 39 °F
Forecast: N/A
Wind: 3 mph from Southwest

Location: Liverpool Airport

Current Time: Nov 30, 2015 at 11:06:18 PM

Latest Report: Nov 30, 2015 at 10:20 PM

Visibility: N/A

Pressure: 30.04 "Hg

Humidity: 100%

Dew point: 41 °F

Location of LiverpoolLocation

Historic Weather in Liverpool — Graph


Liverpool temperature yesterday

Maximum temperature yesterday: 57 °F (at 12:50 PM)
Minimum temperature yesterday: 45 °F (at 8:20 PM)
Average temperature yesterday: 49 °F

Past Weeks' High & Low Weather Summary

High59 °F (Nov 16, 12:20 AM)100% (Nov 17, 12:20 AM)30.24 "Hg (Nov 17, 12:20 AM)
Low32 °F (Nov 23, 5:20 AM)49% (Nov 21, 1:20 PM)29.24 "Hg (Nov 17, 2:50 PM)
Average47 °F85%29.79 "Hg
* Reported Nov 15 9:20 PM — Nov 30 9:20 PM, Liverpool, Weather by CustomWeather, © 2015

Note: Actual official high and low records may vary slightly from our data, if they occured in-between our weather recording intervals... More about our weather records


Liverpool weather history for previous 24 hours

Time TempWeatherWind HumidityBarometerVisibility
9:20 PM
Mon, Nov 30
41 °FPassing clouds.No wind100%30.01 "HgN/A
8:50 PM41 °FPassing clouds.2 mph93%30.01 "HgN/A
8:20 PM43 °FPassing clouds.5 mph87%29.98 "HgN/A
7:50 PM43 °FPassing clouds.7 mph93%29.98 "HgN/A
7:20 PM43 °FPassing clouds.9 mph87%29.95 "HgN/A
6:50 PM45 °FPassing clouds.10 mph87%29.95 "HgN/A
6:20 PM45 °FPassing clouds.13 mph87%29.92 "HgN/A
5:50 PM45 °FPassing clouds.14 mph87%29.89 "HgN/A
5:20 PM45 °FPassing clouds.14 mph93%29.86 "HgN/A
4:50 PM48 °FPassing clouds.14 mph82%29.83 "HgN/A
4:20 PM48 °FPassing clouds.12 mph87%29.80 "HgN/A
3:50 PM46 °FLight rain. Broken clouds.15 mph93%29.77 "Hg4 mi
3:20 PM50 °FLight rain. Broken clouds.21 mph100%29.71 "Hg2 mi
2:50 PM52 °FSprinkles. Broken clouds.28 mph100%29.68 "Hg2 mi
2:20 PM55 °FPartly sunny.17 mph82%29.65 "HgN/A
1:50 PM55 °FBroken clouds.21 mph88%29.65 "HgN/A
1:20 PM54 °FScattered showers. Broken clouds.20 mph94%29.65 "HgN/A
12:50 PM54 °FRain. Broken clouds.23 mph94%29.65 "Hg5 mi
12:20 PM54 °FRain. Broken clouds.25 mph94%29.65 "Hg5 mi
11:50 AM54 °FRain. Broken clouds.28 mph94%29.65 "Hg5 mi
11:20 AM54 °FRain. Partly sunny.30 mph88%29.65 "Hg5 mi
10:50 AM52 °FRain showers. Broken clouds.23 mph94%29.68 "Hg5 mi
10:20 AM52 °FRain showers. Broken clouds.17 mph94%29.71 "Hg5 mi
9:50 AM46 °FSprinkles. Broken clouds.5 mph100%29.71 "Hg5 mi
9:20 AM45 °FSprinkles. Broken clouds.7 mph100%29.74 "Hg5 mi
8:50 AM43 °FScattered showers. Partly sunny.5 mph100%29.77 "Hg6 mi
8:20 AM43 °FScattered showers. Partly sunny.8 mph100%29.77 "Hg6 mi
6:50 AM43 °FSprinkles. Passing clouds.6 mph93%29.86 "HgN/A
6:20 AM43 °FSprinkles. Passing clouds.5 mph93%29.86 "HgN/A
5:50 AM43 °FSprinkles. Passing clouds.9 mph93%29.89 "HgN/A
5:20 AM43 °FClear.9 mph87%29.92 "Hg10 mi
4:50 AM45 °FClear.8 mph81%29.92 "Hg10 mi
4:20 AM45 °FClear.10 mph76%29.95 "Hg10 mi
3:50 AM46 °FClear.14 mph71%29.95 "Hg10 mi
3:20 AM43 °FClear.12 mph76%29.95 "Hg10 mi
2:50 AM43 °FClear.10 mph76%29.95 "Hg10 mi
2:20 AM43 °FClear.9 mph71%29.95 "Hg10 mi
12:50 AM43 °FClear.14 mph71%29.95 "Hg10 mi
12:20 AM43 °FClear.18 mph71%29.95 "Hg10 mi
11:50 PM
Sun, Nov 29
45 °FPassing clouds.18 mph66%29.92 "HgN/A
Weather by CustomWeather, © 2015

See weather overviewHow to use our weather pages